IGO501 VCBI-VTSP

Flight info

Callsign IGO501
Flight time 2h 35m
Altitude 35000
Route OLSAR1D BIDAN L645 UBNEN UBNEN1D
Aircraft A320/M-SDE3FGHIRWY/LB1

Departure

Time 2026-04-24 03:37
Airport Bandaranaike International Colombo Airport (VCBI)

Arrival

Time 2026-04-24 06:12
Airport Phuket International Airport (VTSP)
Time Latitude Longitude Altitude Speed Heading
2026-04-24 03:25 7.17882 79.88536 43 ft 0 kts 37°
2026-04-24 03:27 7.17873 79.88529 43 ft 3 kts 36°
2026-04-24 03:28 7.17856 79.88517 43 ft 3 kts 31°
2026-04-24 03:28 7.17844 79.88511 43 ft 3 kts 24°
2026-04-24 03:28 7.17819 79.88504 43 ft 3 kts 346°
2026-04-24 03:28 7.17810 79.88507 43 ft 2 kts 312°
2026-04-24 03:29 7.17808 79.88509 43 ft 0 kts 307°
2026-04-24 03:31 7.17809 79.88509 43 ft 1 kts 307°
2026-04-24 03:31 7.17821 79.88493 43 ft 5 kts 307°
2026-04-24 03:31 7.17850 79.88455 43 ft 8 kts 310°
2026-04-24 03:31 7.17905 79.88443 43 ft 9 kts 26°
2026-04-24 03:32 7.17963 79.88486 43 ft 11 kts 38°
2026-04-24 03:32 7.18030 79.88541 43 ft 13 kts 39°
2026-04-24 03:32 7.18107 79.88602 43 ft 15 kts 38°
2026-04-24 03:32 7.18197 79.88672 43 ft 17 kts 38°
2026-04-24 03:33 7.18299 79.88751 43 ft 19 kts 37°
2026-04-24 03:33 7.18409 79.88837 43 ft 21 kts 38°
2026-04-24 03:33 7.18530 79.88931 43 ft 23 kts 38°
2026-04-24 03:33 7.18662 79.89033 43 ft 25 kts 37°
2026-04-24 03:34 7.18805 79.89142 43 ft 27 kts 38°
2026-04-24 03:34 7.18954 79.89260 43 ft 27 kts 38°
2026-04-24 03:34 7.19085 79.89363 43 ft 17 kts 38°
2026-04-24 03:34 7.19162 79.89420 43 ft 11 kts 22°
2026-04-24 03:35 7.19215 79.89410 43 ft 8 kts 321°
2026-04-24 03:35 7.19248 79.89369 43 ft 8 kts 308°
2026-04-24 03:35 7.19281 79.89327 43 ft 8 kts 308°
2026-04-24 03:35 7.19289 79.89295 43 ft 4 kts 244°
2026-04-24 03:36 7.19276 79.89281 43 ft 0 kts 219°
2026-04-24 03:37 7.19164 79.89193 43 ft 58 kts 216°
2026-04-24 03:37 7.18633 79.88786 44 ft 133 kts 217°
2026-04-24 03:37 7.17722 79.88084 58 ft 189 kts 215°
2026-04-24 03:37 7.16694 79.87306 850 ft 181 kts 214°
2026-04-24 03:38 7.15588 79.86796 1695 ft 177 kts 185°
2026-04-24 03:38 7.14348 79.87051 2203 ft 188 kts 152°
2026-04-24 03:38 7.13211 79.87795 2524 ft 203 kts 146°
2026-04-24 03:38 7.11999 79.88634 2819 ft 221 kts 143°
2026-04-24 03:39 7.10906 79.89786 3122 ft 240 kts 120°
2026-04-24 03:39 7.10451 79.91447 3446 ft 258 kts 88°
2026-04-24 03:39 7.10951 79.93225 3848 ft 272 kts 58°
2026-04-24 03:39 7.12252 79.94605 4516 ft 274 kts 37°
2026-04-24 03:40 7.13791 79.95711 5272 ft 274 kts 34°
2026-04-24 03:40 7.15378 79.96830 5947 ft 278 kts 36°
2026-04-24 03:40 7.16932 79.97999 6633 ft 280 kts 37°
2026-04-24 03:40 7.18476 79.99208 7290 ft 283 kts 38°
2026-04-24 03:41 7.20037 80.00428 7926 ft 286 kts 38°
2026-04-24 03:41 7.21643 80.01668 8555 ft 289 kts 37°
2026-04-24 03:41 7.23234 80.02885 9129 ft 292 kts 37°
2026-04-24 03:41 7.24779 80.04273 9698 ft 296 kts 52°
2026-04-24 03:42 7.25673 80.06094 10233 ft 298 kts 78°
2026-04-24 03:42 7.25897 80.08215 10641 ft 308 kts 88°
2026-04-24 03:42 7.25944 80.10430 10855 ft 324 kts 89°
2026-04-24 03:42 7.25975 80.12766 11042 ft 340 kts 88°
2026-04-24 03:43 7.26051 80.15174 11220 ft 355 kts 87°
2026-04-24 03:43 7.26184 80.17737 11395 ft 370 kts 86°
2026-04-24 03:43 7.26347 80.20368 11562 ft 384 kts 86°
2026-04-24 03:43 7.26512 80.23083 11757 ft 396 kts 86°
2026-04-24 03:44 7.26667 80.25874 12199 ft 399 kts 86°
2026-04-24 03:44 7.26813 80.28669 12730 ft 400 kts 86°
2026-04-24 03:44 7.26959 80.31480 13210 ft 402 kts 86°
2026-04-24 03:44 7.27108 80.34288 13649 ft 405 kts 86°
2026-04-24 03:45 7.27261 80.37118 14078 ft 407 kts 86°
2026-04-24 03:45 7.27417 80.39969 14516 ft 409 kts 86°
2026-04-24 03:45 7.27572 80.42856 14939 ft 412 kts 86°
2026-04-24 03:45 7.27726 80.45739 15327 ft 414 kts 86°
2026-04-24 03:46 7.27884 80.48649 15703 ft 417 kts 86°
2026-04-24 03:46 7.28046 80.51563 16097 ft 419 kts 86°
2026-04-24 03:46 7.28209 80.54500 16473 ft 421 kts 86°
2026-04-24 03:46 7.28373 80.57499 16860 ft 423 kts 86°
2026-04-24 03:47 7.28534 80.60455 17233 ft 425 kts 86°
2026-04-24 03:47 7.28696 80.63441 17599 ft 427 kts 86°
2026-04-24 03:47 7.28854 80.66409 17929 ft 429 kts 86°
2026-04-24 03:47 7.29017 80.69444 18277 ft 431 kts 86°
2026-04-24 03:48 7.29179 80.72445 18615 ft 433 kts 86°
2026-04-24 03:48 7.29342 80.75474 18934 ft 435 kts 86°
2026-04-24 03:48 7.29508 80.78543 19234 ft 438 kts 86°
2026-04-24 03:48 7.29674 80.81611 19526 ft 441 kts 86°
2026-04-24 03:49 7.29841 80.84739 19830 ft 443 kts 86°
2026-04-24 03:49 7.30003 80.87804 20132 ft 445 kts 86°
2026-04-24 03:49 7.30172 80.90937 20435 ft 447 kts 86°
2026-04-24 03:49 7.30342 80.94081 20738 ft 449 kts 86°
2026-04-24 03:50 7.30510 80.97222 21037 ft 451 kts 86°
2026-04-24 03:50 7.30678 81.00370 21326 ft 453 kts 86°
2026-04-24 03:50 7.30848 81.03603 21610 ft 456 kts 86°
2026-04-24 03:50 7.31015 81.06798 21886 ft 458 kts 86°
2026-04-24 03:51 7.31186 81.09987 22169 ft 460 kts 86°
2026-04-24 03:51 7.31359 81.13195 22435 ft 462 kts 86°
2026-04-24 03:51 7.31533 81.16440 22707 ft 464 kts 86°
2026-04-24 03:51 7.31704 81.19719 22978 ft 467 kts 86°
2026-04-24 03:52 7.31612 81.22981 23233 ft 470 kts 95°
2026-04-24 03:52 7.31094 81.26250 23512 ft 472 kts 99°
2026-04-24 03:52 7.30471 81.29496 23769 ft 475 kts 100°
2026-04-24 03:52 7.29803 81.32763 24024 ft 477 kts 100°
2026-04-24 03:53 7.29137 81.36056 24279 ft 479 kts 100°
2026-04-24 03:53 7.28503 81.39358 24537 ft 480 kts 99°
2026-04-24 03:53 7.27891 81.42669 24791 ft 482 kts 99°
2026-04-24 03:53 7.27279 81.45997 25045 ft 484 kts 100°
2026-04-24 03:54 7.26652 81.49336 25292 ft 486 kts 100°
2026-04-24 03:54 7.26010 81.52680 25530 ft 488 kts 100°
2026-04-24 03:54 7.25481 81.56065 25775 ft 488 kts 94°
2026-04-24 03:54 7.25451 81.59469 26149 ft 486 kts 88°
2026-04-24 03:55 7.25613 81.62861 26561 ft 483 kts 86°
2026-04-24 03:55 7.25830 81.66221 26875 ft 483 kts 86°
2026-04-24 03:55 7.26058 81.69628 27153 ft 484 kts 86°
2026-04-24 03:55 7.26255 81.72993 27455 ft 484 kts 87°
2026-04-24 03:56 7.26425 81.76398 27788 ft 484 kts 88°
2026-04-24 03:56 7.26583 81.79774 28146 ft 482 kts 88°
2026-04-24 03:56 7.26749 81.83153 28458 ft 482 kts 88°
2026-04-24 03:56 7.26929 81.86542 28767 ft 482 kts 87°
2026-04-24 03:57 7.27113 81.89890 29081 ft 481 kts 88°
2026-04-24 03:57 7.27295 81.93227 29398 ft 481 kts 88°
2026-04-24 03:57 7.27476 81.96631 29719 ft 481 kts 88°
2026-04-24 03:57 7.27652 81.99988 30025 ft 480 kts 88°
2026-04-24 03:58 7.27827 82.03315 30314 ft 480 kts 88°
2026-04-24 03:58 7.28007 82.06721 30606 ft 480 kts 88°
2026-04-24 03:58 7.28186 82.10034 30893 ft 480 kts 88°
2026-04-24 03:58 7.28366 82.13414 31179 ft 480 kts 88°
2026-04-24 03:59 7.28545 82.16754 31467 ft 479 kts 88°
2026-04-24 03:59 7.28724 82.20134 31750 ft 479 kts 88°
2026-04-24 03:59 7.28904 82.23489 32017 ft 479 kts 88°
2026-04-24 03:59 7.29081 82.26810 32287 ft 479 kts 89°
2026-04-24 04:00 7.29260 82.30188 32555 ft 478 kts 89°
2026-04-24 04:00 7.29434 82.33502 32807 ft 478 kts 89°
2026-04-24 04:00 7.29613 82.36879 32878 ft 478 kts 89°
2026-04-24 04:01 7.29965 82.43527 32881 ft 478 kts 89°
2026-04-24 04:01 7.30258 82.49108 32880 ft 478 kts 89°
2026-04-24 04:02 7.30667 82.56928 32880 ft 477 kts 89°
2026-04-24 04:02 7.30955 82.62470 32881 ft 477 kts 89°
2026-04-24 04:03 7.31305 82.69169 32892 ft 477 kts 89°
2026-04-24 04:03 7.31656 82.75854 32909 ft 477 kts 89°
2026-04-24 04:04 7.32001 82.82539 32920 ft 477 kts 89°
2026-04-24 04:04 7.32352 82.89248 32918 ft 478 kts 89°
2026-04-24 04:05 7.32698 82.95921 32919 ft 478 kts 89°
2026-04-24 04:05 7.33037 83.02592 32921 ft 478 kts 89°
2026-04-24 04:06 7.33381 83.09302 32920 ft 478 kts 89°
2026-04-24 04:06 7.33726 83.15995 32918 ft 479 kts 89°
2026-04-24 04:07 7.34068 83.22697 32918 ft 479 kts 89°
2026-04-24 04:07 7.34408 83.29378 32920 ft 479 kts 89°
2026-04-24 04:08 7.34750 83.36108 32923 ft 479 kts 89°
2026-04-24 04:08 7.35086 83.42773 32922 ft 479 kts 89°
2026-04-24 04:09 7.35426 83.49485 32920 ft 479 kts 89°
2026-04-24 04:09 7.35761 83.56176 32919 ft 479 kts 89°
2026-04-24 04:10 7.36097 83.62875 32921 ft 478 kts 89°
2026-04-24 04:10 7.36432 83.69579 32923 ft 478 kts 89°
2026-04-24 04:11 7.36933 83.79627 32921 ft 478 kts 89°
2026-04-24 04:11 7.37263 83.86316 32919 ft 478 kts 89°
2026-04-24 04:12 7.37598 83.93016 32921 ft 478 kts 89°
2026-04-24 04:12 7.37927 83.99701 32923 ft 478 kts 89°
2026-04-24 04:13 7.38255 84.06360 32922 ft 478 kts 89°
2026-04-24 04:13 7.38582 84.13061 32919 ft 478 kts 89°
2026-04-24 04:14 7.38912 84.19781 32920 ft 477 kts 89°
2026-04-24 04:14 7.39235 84.26433 32923 ft 477 kts 89°
2026-04-24 04:15 7.39559 84.33113 32922 ft 477 kts 89°
2026-04-24 04:15 7.39881 84.39757 32920 ft 476 kts 89°
2026-04-24 04:16 7.40204 84.46440 32919 ft 476 kts 89°
2026-04-24 04:16 7.40524 84.53111 32921 ft 476 kts 89°
2026-04-24 04:17 7.40845 84.59766 32923 ft 476 kts 89°
2026-04-24 04:17 7.41163 84.66435 32921 ft 476 kts 89°
2026-04-24 04:18 7.41479 84.73115 32919 ft 476 kts 89°
2026-04-24 04:18 7.41797 84.79782 32920 ft 476 kts 89°
2026-04-24 04:19 7.42113 84.86408 32922 ft 475 kts 89°
2026-04-24 04:19 7.42431 84.93093 32923 ft 475 kts 89°
2026-04-24 04:20 7.42742 84.99742 32921 ft 475 kts 89°
2026-04-24 04:20 7.43050 85.06375 32919 ft 475 kts 89°
2026-04-24 04:21 7.43366 85.13069 32920 ft 475 kts 89°
2026-04-24 04:21 7.43676 85.19695 32921 ft 475 kts 89°
2026-04-24 04:22 7.43985 85.26365 32923 ft 475 kts 89°
2026-04-24 04:22 7.44376 85.32975 32922 ft 475 kts 86°
2026-04-24 04:23 7.44970 85.39633 32920 ft 475 kts 86°
2026-04-24 04:23 7.45569 85.46269 32919 ft 475 kts 86°
2026-04-24 04:24 7.46148 85.52895 32921 ft 475 kts 86°
2026-04-24 04:24 7.46729 85.59512 32923 ft 475 kts 86°
2026-04-24 04:25 7.47316 85.66141 32922 ft 475 kts 86°
2026-04-24 04:25 7.47900 85.72779 32921 ft 475 kts 86°
2026-04-24 04:26 7.48482 85.79406 32919 ft 475 kts 86°
2026-04-24 04:26 7.49068 85.86071 32921 ft 475 kts 86°
2026-04-24 04:27 7.49645 85.92681 32922 ft 475 kts 86°
2026-04-24 04:27 7.50225 85.99332 32923 ft 475 kts 86°
2026-04-24 04:28 7.50805 86.05967 32923 ft 475 kts 86°
2026-04-24 04:28 7.51377 86.12564 32922 ft 475 kts 86°
2026-04-24 04:29 7.51955 86.19208 32920 ft 475 kts 86°
2026-04-24 04:29 7.52533 86.25828 32919 ft 475 kts 86°
2026-04-24 04:30 7.53105 86.32479 32919 ft 475 kts 86°
2026-04-24 04:30 7.53675 86.39110 32921 ft 475 kts 86°
2026-04-24 04:31 7.54250 86.45718 32923 ft 475 kts 86°
2026-04-24 04:31 7.54820 86.52349 32923 ft 474 kts 86°
2026-04-24 04:32 7.55335 86.58982 32919 ft 474 kts 87°
2026-04-24 04:32 7.55759 86.65611 32920 ft 474 kts 87°
2026-04-24 04:33 7.56110 86.71147 32919 ft 474 kts 87°
2026-04-24 04:33 7.56532 86.77788 32919 ft 474 kts 87°
2026-04-24 04:34 7.56953 86.84433 32919 ft 473 kts 87°
2026-04-24 04:34 7.57372 86.91018 32921 ft 473 kts 87°
2026-04-24 04:35 7.57793 86.97652 32923 ft 473 kts 87°
2026-04-24 04:35 7.58210 87.04271 32923 ft 473 kts 87°
2026-04-24 04:36 7.58624 87.10866 32922 ft 472 kts 87°
2026-04-24 04:36 7.59040 87.17476 32921 ft 472 kts 87°
2026-04-24 04:37 7.59454 87.24088 32919 ft 472 kts 87°
2026-04-24 04:37 7.59869 87.30713 32920 ft 472 kts 87°
2026-04-24 04:38 7.60281 87.37294 32921 ft 472 kts 87°
2026-04-24 04:38 7.60689 87.43899 32923 ft 471 kts 87°
2026-04-24 04:39 7.61097 87.50496 32923 ft 471 kts 87°
2026-04-24 04:39 7.61508 87.57093 32921 ft 471 kts 87°
2026-04-24 04:40 7.61915 87.63699 32919 ft 471 kts 87°
2026-04-24 04:40 7.62318 87.70273 32919 ft 471 kts 87°
2026-04-24 04:41 7.62723 87.76845 32921 ft 471 kts 87°
2026-04-24 04:41 7.63128 87.83459 32923 ft 471 kts 87°
2026-04-24 04:42 7.63530 87.90044 32923 ft 471 kts 87°
2026-04-24 04:42 7.63932 87.96623 32922 ft 471 kts 87°
2026-04-24 04:43 7.64326 88.03225 32921 ft 471 kts 88°
2026-04-24 04:43 7.64597 88.09840 32919 ft 471 kts 88°
2026-04-24 04:44 7.64857 88.16403 32919 ft 471 kts 88°
2026-04-24 04:44 7.65123 88.23038 32921 ft 471 kts 88°
2026-04-24 04:45 7.65382 88.29612 32922 ft 471 kts 88°
2026-04-24 04:45 7.65640 88.36215 32923 ft 471 kts 88°
2026-04-24 04:46 7.65901 88.42815 32921 ft 471 kts 88°
2026-04-24 04:46 7.66159 88.49430 32920 ft 471 kts 88°
2026-04-24 04:47 7.66415 88.56035 32919 ft 471 kts 88°
2026-04-24 04:47 7.66671 88.62630 32920 ft 471 kts 88°
2026-04-24 04:48 7.66926 88.69217 32921 ft 471 kts 88°
2026-04-24 04:48 7.67179 88.75822 32923 ft 471 kts 88°
2026-04-24 04:49 7.67433 88.82418 32923 ft 471 kts 88°
2026-04-24 04:49 7.67681 88.89004 32922 ft 471 kts 88°
2026-04-24 04:50 7.67934 88.95626 32921 ft 471 kts 88°
2026-04-24 04:50 7.68186 89.02229 32919 ft 471 kts 88°
2026-04-24 04:51 7.68434 89.08834 32914 ft 471 kts 88°
2026-04-24 04:51 7.68680 89.15405 32915 ft 471 kts 88°
2026-04-24 04:52 7.68930 89.22053 32914 ft 471 kts 88°
2026-04-24 04:52 7.69174 89.28615 32913 ft 471 kts 88°
2026-04-24 04:53 7.69464 89.35250 32911 ft 472 kts 87°
2026-04-24 04:53 7.69853 89.41881 32910 ft 472 kts 87°
2026-04-24 04:54 7.70236 89.48448 32911 ft 472 kts 87°
2026-04-24 04:54 7.70615 89.55060 32912 ft 472 kts 87°
2026-04-24 04:55 7.70999 89.61697 32914 ft 472 kts 87°
2026-04-24 04:55 7.71375 89.68276 32914 ft 472 kts 87°
2026-04-24 04:56 7.71752 89.74887 32913 ft 472 kts 87°
2026-04-24 04:56 7.72132 89.81509 32911 ft 472 kts 87°
2026-04-24 04:57 7.72509 89.88132 32910 ft 473 kts 87°
2026-04-24 04:57 7.72885 89.94762 32910 ft 473 kts 87°
2026-04-24 04:58 7.73260 90.01371 32912 ft 473 kts 87°
2026-04-24 04:58 7.73631 90.07993 32913 ft 473 kts 87°
2026-04-24 04:59 7.74002 90.14590 32913 ft 473 kts 87°
2026-04-24 04:59 7.74374 90.21200 32912 ft 473 kts 87°
2026-04-24 05:00 7.74745 90.27847 32910 ft 473 kts 87°
2026-04-24 05:00 7.75115 90.34451 32910 ft 473 kts 87°
2026-04-24 05:01 7.75483 90.41080 32909 ft 473 kts 86°
2026-04-24 05:01 7.75853 90.47743 32908 ft 473 kts 87°
2026-04-24 05:02 7.76221 90.54347 32909 ft 473 kts 87°
2026-04-24 05:02 7.76585 90.60981 32910 ft 474 kts 87°
2026-04-24 05:03 7.76951 90.67637 32912 ft 474 kts 86°
2026-04-24 05:03 7.77316 90.74247 32912 ft 473 kts 86°
2026-04-24 05:04 7.77679 90.80904 32912 ft 473 kts 86°
2026-04-24 05:04 7.78039 90.87522 32911 ft 473 kts 86°
2026-04-24 05:05 7.78340 90.93029 32912 ft 473 kts 86°
2026-04-24 05:05 7.78699 90.99652 32911 ft 472 kts 86°
2026-04-24 05:06 7.79055 91.06252 32910 ft 472 kts 86°
2026-04-24 05:06 7.79412 91.12875 32908 ft 471 kts 86°
2026-04-24 05:07 7.79769 91.19466 32908 ft 471 kts 86°
2026-04-24 05:07 7.80121 91.26055 32909 ft 471 kts 86°
2026-04-24 05:08 7.80476 91.32667 32911 ft 470 kts 86°
2026-04-24 05:08 7.80825 91.39223 32912 ft 470 kts 86°
2026-04-24 05:09 7.81175 91.45809 32911 ft 470 kts 86°
2026-04-24 05:09 7.81525 91.52382 32910 ft 470 kts 86°
2026-04-24 05:10 7.81871 91.58943 32908 ft 469 kts 86°
2026-04-24 05:10 7.82217 91.65547 32907 ft 469 kts 86°
2026-04-24 05:11 7.82577 91.72111 32908 ft 469 kts 86°
2026-04-24 05:11 7.82976 91.78682 32909 ft 469 kts 86°
2026-04-24 05:12 7.83365 91.85251 32910 ft 469 kts 86°
2026-04-24 05:12 7.83741 91.91810 32911 ft 469 kts 86°
2026-04-24 05:13 7.84316 92.01640 32910 ft 469 kts 86°
2026-04-24 05:14 7.84696 92.08221 32908 ft 469 kts 86°
2026-04-24 05:14 7.85075 92.14780 32907 ft 469 kts 86°
2026-04-24 05:15 7.85451 92.21350 32906 ft 469 kts 86°
2026-04-24 05:15 7.85828 92.27906 32907 ft 469 kts 86°
2026-04-24 05:16 7.86203 92.34447 32908 ft 468 kts 86°
2026-04-24 05:16 7.86581 92.41061 32908 ft 468 kts 86°
2026-04-24 05:17 7.86950 92.47587 32905 ft 468 kts 86°
2026-04-24 05:17 7.87324 92.54141 32906 ft 468 kts 86°
2026-04-24 05:18 7.87699 92.60719 32907 ft 468 kts 86°
2026-04-24 05:18 7.88065 92.67271 32909 ft 468 kts 86°
2026-04-24 05:19 7.88438 92.73867 32908 ft 468 kts 86°
2026-04-24 05:19 7.88805 92.80388 32905 ft 468 kts 86°
2026-04-24 05:20 7.89173 92.86972 32904 ft 468 kts 86°
2026-04-24 05:20 7.89540 92.93521 32904 ft 468 kts 86°
2026-04-24 05:21 7.89905 93.00081 32902 ft 468 kts 86°
2026-04-24 05:21 7.90270 93.06670 32901 ft 468 kts 86°
2026-04-24 05:22 7.90631 93.13217 32900 ft 468 kts 86°
2026-04-24 05:22 7.90997 93.19767 32900 ft 468 kts 86°
2026-04-24 05:23 7.91361 93.26347 32901 ft 468 kts 86°
2026-04-24 05:23 7.91715 93.32891 32902 ft 468 kts 86°
2026-04-24 05:24 7.92073 93.39452 32903 ft 468 kts 86°
2026-04-24 05:24 7.92436 93.46038 32902 ft 468 kts 86°
2026-04-24 05:25 7.92794 93.52571 32900 ft 468 kts 86°
2026-04-24 05:25 7.93174 93.59148 32901 ft 468 kts 86°
2026-04-24 05:26 7.93555 93.65693 32902 ft 468 kts 86°
2026-04-24 05:26 7.93929 93.72285 32901 ft 468 kts 86°
2026-04-24 05:27 7.94301 93.78817 32902 ft 468 kts 86°
2026-04-24 05:27 7.94677 93.85392 32902 ft 468 kts 86°
2026-04-24 05:28 7.95045 93.91893 32902 ft 468 kts 86°
2026-04-24 05:28 7.95416 93.98487 32900 ft 467 kts 86°
2026-04-24 05:29 7.95782 94.05002 32898 ft 468 kts 86°
2026-04-24 05:29 7.96152 94.11567 32898 ft 467 kts 86°
2026-04-24 05:30 7.96520 94.18130 32899 ft 467 kts 86°
2026-04-24 05:30 7.96887 94.24672 32901 ft 467 kts 86°
2026-04-24 05:31 7.97254 94.31243 32900 ft 467 kts 86°
2026-04-24 05:31 7.97616 94.37784 32898 ft 468 kts 86°
2026-04-24 05:32 7.97904 94.44349 32897 ft 468 kts 88°
2026-04-24 05:32 7.98069 94.50912 32897 ft 468 kts 88°
2026-04-24 05:33 7.98229 94.57455 32899 ft 468 kts 88°
2026-04-24 05:33 7.98393 94.64011 32900 ft 468 kts 88°
2026-04-24 05:34 7.98641 94.73857 32899 ft 468 kts 88°
2026-04-24 05:34 7.98803 94.80430 32897 ft 468 kts 88°
2026-04-24 05:35 7.98964 94.86963 32895 ft 468 kts 88°
2026-04-24 05:35 7.99124 94.93540 32896 ft 468 kts 88°
2026-04-24 05:36 7.99283 95.00117 32898 ft 467 kts 88°
2026-04-24 05:36 7.99442 95.06669 32899 ft 467 kts 88°
2026-04-24 05:37 7.99598 95.13204 32898 ft 467 kts 88°
2026-04-24 05:37 7.99753 95.19781 32896 ft 467 kts 88°
2026-04-24 05:38 7.99880 95.25214 32898 ft 467 kts 88°
2026-04-24 05:38 8.00036 95.31786 32896 ft 467 kts 88°
2026-04-24 05:39 8.00189 95.38317 32894 ft 467 kts 88°
2026-04-24 05:39 8.00339 95.44874 32893 ft 467 kts 88°
2026-04-24 05:40 8.00491 95.51450 32897 ft 467 kts 88°
2026-04-24 05:40 8.00697 95.57998 32896 ft 467 kts 87°
2026-04-24 05:41 8.00946 95.64542 32895 ft 466 kts 88°
2026-04-24 05:41 8.01153 95.71051 32893 ft 466 kts 88°
2026-04-24 05:42 8.01359 95.77574 32893 ft 466 kts 88°
2026-04-24 05:42 8.01580 95.84133 32895 ft 466 kts 88°
2026-04-24 05:43 8.01791 95.90650 32896 ft 465 kts 88°
2026-04-24 05:43 8.02002 95.97163 32896 ft 465 kts 88°
2026-04-24 05:44 8.02213 96.03725 32895 ft 465 kts 88°
2026-04-24 05:44 8.02421 96.10251 32893 ft 465 kts 88°
2026-04-24 05:45 8.02629 96.16770 32892 ft 465 kts 88°
2026-04-24 05:45 8.02836 96.23295 32893 ft 465 kts 88°
2026-04-24 05:46 8.03042 96.29804 32895 ft 465 kts 88°
2026-04-24 05:46 8.03248 96.36328 32896 ft 464 kts 88°
2026-04-24 05:47 8.03450 96.42847 32895 ft 464 kts 88°
2026-04-24 05:47 8.03652 96.49338 32893 ft 464 kts 88°
2026-04-24 05:48 8.03854 96.55878 32891 ft 464 kts 88°
2026-04-24 05:48 8.04056 96.62398 32893 ft 464 kts 88°
2026-04-24 05:49 8.04255 96.68906 32894 ft 464 kts 88°
2026-04-24 05:49 8.04451 96.75448 32895 ft 464 kts 88°
2026-04-24 05:50 8.04652 96.81935 32891 ft 464 kts 88°
2026-04-24 05:50 8.04845 96.88426 32891 ft 464 kts 88°
2026-04-24 05:51 8.05041 96.94955 32878 ft 464 kts 88°
2026-04-24 05:51 8.05235 97.01456 32875 ft 465 kts 88°
2026-04-24 05:52 8.05430 97.07975 32872 ft 465 kts 88°
2026-04-24 05:52 8.05623 97.14527 32856 ft 464 kts 88°
2026-04-24 05:53 8.05718 97.17754 32574 ft 460 kts 88°
2026-04-24 05:53 8.05813 97.20989 31935 ft 459 kts 87°
2026-04-24 05:53 8.05961 97.24193 30985 ft 463 kts 86°
2026-04-24 05:53 8.06135 97.27442 30131 ft 465 kts 86°
2026-04-24 05:54 8.06317 97.30722 29333 ft 465 kts 86°
2026-04-24 05:54 8.06495 97.33970 28549 ft 466 kts 86°
2026-04-24 05:54 8.06668 97.37223 27778 ft 467 kts 86°
2026-04-24 05:54 8.06842 97.40530 26979 ft 469 kts 86°
2026-04-24 05:55 8.07014 97.43785 26159 ft 470 kts 86°
2026-04-24 05:55 8.07190 97.47113 25291 ft 472 kts 87°
2026-04-24 05:55 8.07365 97.50424 24391 ft 475 kts 87°
2026-04-24 05:55 8.07543 97.53761 23554 ft 475 kts 87°
2026-04-24 05:56 8.07720 97.57120 22801 ft 474 kts 87°
2026-04-24 05:56 8.07889 97.60428 22037 ft 473 kts 88°
2026-04-24 05:56 8.08053 97.63726 21284 ft 470 kts 88°
2026-04-24 05:56 8.08217 97.67001 20539 ft 465 kts 88°
2026-04-24 05:57 8.08380 97.70221 19815 ft 460 kts 88°
2026-04-24 05:57 8.08544 97.73436 19067 ft 456 kts 88°
2026-04-24 05:57 8.08707 97.76639 18347 ft 450 kts 88°
2026-04-24 05:57 8.09001 97.79770 17665 ft 445 kts 81°
2026-04-24 05:58 8.09858 97.82757 16971 ft 442 kts 70°
2026-04-24 05:58 8.11013 97.85594 16283 ft 437 kts 68°
2026-04-24 05:58 8.12233 97.88387 15594 ft 433 kts 67°
2026-04-24 05:58 8.13458 97.91158 14935 ft 428 kts 67°
2026-04-24 05:59 8.14633 97.93889 14200 ft 425 kts 68°
2026-04-24 05:59 8.15776 97.96623 13480 ft 421 kts 68°
2026-04-24 05:59 8.16905 97.99355 12778 ft 416 kts 68°
2026-04-24 05:59 8.18007 98.02006 12078 ft 412 kts 68°
2026-04-24 06:00 8.18778 98.04415 11514 ft 406 kts 78°
2026-04-24 06:00 8.19178 98.07236 10905 ft 402 kts 84°
2026-04-24 06:00 8.19435 98.10014 10601 ft 387 kts 85°
2026-04-24 06:00 8.19642 98.12654 10467 ft 368 kts 85°
2026-04-24 06:01 8.19848 98.15154 10341 ft 351 kts 85°
2026-04-24 06:01 8.20070 98.17545 10215 ft 335 kts 84°
2026-04-24 06:01 8.20297 98.19864 10083 ft 321 kts 84°
2026-04-24 06:01 8.20512 98.22058 9951 ft 307 kts 84°
2026-04-24 06:02 8.20712 98.24160 9796 ft 295 kts 85°
2026-04-24 06:02 8.20907 98.26216 9348 ft 294 kts 84°
2026-04-24 06:02 8.21099 98.28258 8843 ft 295 kts 85°
2026-04-24 06:02 8.21292 98.30316 8408 ft 292 kts 85°
2026-04-24 06:03 8.21483 98.32348 7974 ft 290 kts 85°
2026-04-24 06:03 8.21674 98.34389 7537 ft 288 kts 85°
2026-04-24 06:03 8.21859 98.36369 7105 ft 285 kts 85°
2026-04-24 06:03 8.22043 98.38345 6682 ft 282 kts 85°
2026-04-24 06:04 8.22230 98.40323 6269 ft 279 kts 85°
2026-04-24 06:04 8.22413 98.42263 5875 ft 276 kts 85°
2026-04-24 06:04 8.22591 98.44160 5517 ft 274 kts 85°
2026-04-24 06:04 8.22771 98.46073 5160 ft 273 kts 84°
2026-04-24 06:05 8.22950 98.47979 4999 ft 263 kts 84°
2026-04-24 06:05 8.23113 98.49733 4991 ft 246 kts 84°
2026-04-24 06:05 8.23270 98.51423 4994 ft 236 kts 84°
2026-04-24 06:05 8.23293 98.53073 4988 ft 234 kts 101°
2026-04-24 06:06 8.22575 98.54506 4979 ft 236 kts 137°
2026-04-24 06:06 8.21118 98.55216 4849 ft 235 kts 172°
2026-04-24 06:06 8.19514 98.55283 4714 ft 225 kts 179°
2026-04-24 06:06 8.17990 98.55320 4533 ft 215 kts 175°
2026-04-24 06:07 8.16498 98.55458 4205 ft 214 kts 173°
2026-04-24 06:07 8.14999 98.55525 3831 ft 216 kts 188°
2026-04-24 06:07 8.13690 98.54880 3435 ft 217 kts 228°
2026-04-24 06:07 8.13062 98.53507 3081 ft 215 kts 261°
2026-04-24 06:08 8.12892 98.52013 2777 ft 213 kts 265°
2026-04-24 06:08 8.12717 98.50539 2479 ft 212 kts 262°
2026-04-24 06:08 8.12480 98.49067 2301 ft 213 kts 257°
2026-04-24 06:08 8.12215 98.47600 2097 ft 212 kts 266°
2026-04-24 06:09 8.12147 98.46122 1995 ft 212 kts 269°
2026-04-24 06:09 8.12091 98.44623 1993 ft 213 kts 268°
2026-04-24 06:09 8.12009 98.43148 1991 ft 205 kts 267°
2026-04-24 06:09 8.11936 98.41792 1915 ft 183 kts 268°
2026-04-24 06:10 8.11872 98.40555 1697 ft 171 kts 268°
2026-04-24 06:10 8.11811 98.39390 1434 ft 159 kts 268°
2026-04-24 06:10 8.11754 98.38292 1199 ft 156 kts 268°
2026-04-24 06:11 8.11641 98.36107 748 ft 156 kts 268°
2026-04-24 06:11 8.11603 98.35375 598 ft 155 kts 268°
2026-04-24 06:11 8.11546 98.34279 390 ft 155 kts 268°
2026-04-24 06:11 8.11473 98.33207 176 ft 152 kts 265°
2026-04-24 06:12 8.11367 98.32159 97 ft 140 kts 265°
2026-04-24 06:12 8.11290 98.31340 97 ft 91 kts 265°
2026-04-24 06:12 8.11248 98.30862 96 ft 51 kts 264°
2026-04-24 06:12 8.11225 98.30588 96 ft 26 kts 256°
2026-04-24 06:13 8.11154 98.30521 96 ft 11 kts 197°
2026-04-24 06:13 8.11080 98.30501 96 ft 11 kts 194°
2026-04-24 06:13 8.11005 98.30482 96 ft 11 kts 194°
2026-04-24 06:13 8.10931 98.30462 96 ft 11 kts 194°
2026-04-24 06:14 8.10869 98.30446 96 ft 8 kts 195°
2026-04-24 06:14 8.10827 98.30434 96 ft 5 kts 196°
2026-04-24 06:14 8.10798 98.30438 96 ft 4 kts 140°
2026-04-24 06:14 8.10791 98.30464 96 ft 4 kts 95°
2026-04-24 06:15 8.10786 98.30487 96 ft 3 kts 103°
2026-04-24 06:15 8.10782 98.30507 96 ft 3 kts 103°
2026-04-24 06:15 8.10778 98.30523 96 ft 0 kts 103°